Location: Deposit
(42.0600°N, 75.4280°W)
Time: 19:01:41
(UTC-04:00)

OTV 5 (USA 277) - Visible Passes

Search period start: 21 October 2019 00:00
Search period end: 31 October 2019 00:00
Orbit: 310 x 324 km, 54.5° (Epoch: 17 October)

Date Brightness Start Highest point End Pass type
(mag) Time Alt. Az. Time Alt. Az. Time Alt. Az.
21 Oct ? 05:52:34 31° S 05:52:34 31° S 05:54:27 10° SSE visible
22 Oct ? 06:07:29 11° SSW 06:07:29 11° SSW 06:07:47 10° SSW visible
27 Oct ? 18:55:23 10° SSE 18:56:35 12° SE 18:56:48 12° ESE visible
28 Oct ? 19:08:26 10° SSW 19:10:55 32° SE 19:11:24 30° ESE visible
29 Oct ? 19:22:41 10° SW 19:25:24 79° NW 19:25:53 55° NE visible
30 Oct ? 19:37:33 10° W 19:40:02 30° NNW 19:40:14 29° NNW visible
